When you browse on this site, cookies collect data to enhance your experience and personalize the content and advertising you see.
Visit our Privacy Policy to learn more. By continuing to use the site, you agree to this use of cookies and data.

Meteo orario Hilo

Oggi, 8 Luglio, Mercoledi

Tempo Temperatura Precipitazioni Vento Pressione Umidità
00:00 +24°C° 0.4 mm 3 m/s 750 mm Hg 76%
01:00 +24°C° 0.4 mm 2 m/s 749 mm Hg 84%
02:00 +24°C° 0.4 mm 2 m/s 749 mm Hg 91%
03:00 +24°C° 0.3 mm 2 m/s 749 mm Hg 90%
04:00 +24°C° 0.3 mm 2 m/s 749 mm Hg 90%
05:00 +24°C° 0.3 mm 2 m/s 749 mm Hg 89%
06:00 +25°C° 0.2 mm 2 m/s 749 mm Hg 85%
07:00 +25°C° 0.2 mm 2 m/s 749 mm Hg 80%
08:00 +26°C° 0.2 mm 2 m/s 749 mm Hg 76%
09:00 +27°C° 0.2 mm 3 m/s 750 mm Hg 74%
10:00 +28°C° 0.2 mm 4 m/s 750 mm Hg 72%
11:00 +29°C° 0.2 mm 4 m/s 750 mm Hg 70%
12:00 +28°C° 0.4 mm 4 m/s 749 mm Hg 75%
13:00 +28°C° 0.4 mm 4 m/s 749 mm Hg 79%
14:00 +27°C° 0.4 mm 5 m/s 749 mm Hg 84%
15:00 +27°C° 0.5 mm 4 m/s 749 mm Hg 86%
16:00 +26°C° 0.5 mm 4 m/s 748 mm Hg 88%
17:00 +26°C° 0.5 mm 3 m/s 748 mm Hg 90%
18:00 +26°C° 0.3 mm 3 m/s 749 mm Hg 91%
19:00 +25°C° 0.3 mm 3 m/s 749 mm Hg 91%
20:00 +25°C° 0.3 mm 2 m/s 749 mm Hg 92%
21:00 +25°C° 0.1 mm 2 m/s 749 mm Hg 91%
22:00 +24°C° 0.1 mm 2 m/s 749 mm Hg 90%
23:00 +24°C° 0.1 mm 2 m/s 750 mm Hg 89%

Domani, 9 Luglio, Giovedi

Tempo Temperatura Precipitazioni Vento Pressione Umidità
00:00 +24°C° 0.1 mm 2 m/s 749 mm Hg 87%
01:00 +24°C° 0.1 mm 2 m/s 749 mm Hg 85%
02:00 +24°C° 0.1 mm 2 m/s 748 mm Hg 82%
03:00 +24°C° 0.1 mm 2 m/s 748 mm Hg 84%
04:00 +24°C° 0.1 mm 2 m/s 748 mm Hg 86%
05:00 +24°C° 0.1 mm 2 m/s 748 mm Hg 87%
06:00 +25°C° 0.1 mm 2 m/s 748 mm Hg 82%
07:00 +26°C° 0.1 mm 2 m/s 749 mm Hg 77%
08:00 +27°C° 0.1 mm 2 m/s 749 mm Hg 71%
09:00 +27°C° 0.3 mm 3 m/s 749 mm Hg 74%
10:00 +28°C° 0.3 mm 4 m/s 749 mm Hg 77%
11:00 +28°C° 0.3 mm 4 m/s 749 mm Hg 80%
12:00 +28°C° 0.2 mm 4 m/s 749 mm Hg 82%
13:00 +27°C° 0.2 mm 4 m/s 748 mm Hg 84%
14:00 +27°C° 0.2 mm 4 m/s 748 mm Hg 85%
15:00 +27°C° 0.1 mm 4 m/s 748 mm Hg 85%
16:00 +27°C° 0.1 mm 4 m/s 748 mm Hg 85%
17:00 +27°C° 0.1 mm 4 m/s 747 mm Hg 85%
18:00 +26°C° 0.1 mm 4 m/s 748 mm Hg 87%
19:00 +26°C° 0.1 mm 3 m/s 748 mm Hg 88%
20:00 +25°C° 0.1 mm 3 m/s 749 mm Hg 90%
21:00 +25°C° 0.1 mm 3 m/s 749 mm Hg 89%
22:00 +25°C° 0.1 mm 3 m/s 749 mm Hg 89%
23:00 +25°C° 0.1 mm 3 m/s 749 mm Hg 88%

Dopodomani, 10 Luglio, Venerdi

Tempo Temperatura Precipitazioni Vento Pressione Umidità
00:00 +25°C° 0.1 mm 3 m/s 749 mm Hg 88%
01:00 +24°C° 0.1 mm 3 m/s 749 mm Hg 88%
02:00 +24°C° 0.1 mm 3 m/s 748 mm Hg 88%
03:00 +24°C° 0.1 mm 3 m/s 748 mm Hg 89%
04:00 +24°C° 0.1 mm 3 m/s 748 mm Hg 89%
05:00 +24°C° 0.1 mm 3 m/s 748 mm Hg 89%
06:00 +25°C° 0 mm 3 m/s 749 mm Hg 85%
07:00 +25°C° 0 mm 3 m/s 749 mm Hg 81%
08:00 +26°C° 0 mm 3 m/s 749 mm Hg 77%
09:00 +27°C° 0 mm 4 m/s 749 mm Hg 74%
10:00 +28°C° 0 mm 4 m/s 749 mm Hg 70%
11:00 +29°C° 0 mm 4 m/s 749 mm Hg 67%
12:00 +29°C° 0 mm 4 m/s 749 mm Hg 65%
13:00 +30°C° 0 mm 4 m/s 749 mm Hg 63%
14:00 +30°C° 0 mm 5 m/s 749 mm Hg 61%
15:00 +29°C° 0 mm 4 m/s 748 mm Hg 65%
16:00 +29°C° 0 mm 4 m/s 748 mm Hg 68%
17:00 +28°C° 0 mm 4 m/s 748 mm Hg 71%
18:00 +27°C° 0 mm 4 m/s 748 mm Hg 77%
19:00 +26°C° 0 mm 3 m/s 748 mm Hg 82%
20:00 +25°C° 0 mm 3 m/s 749 mm Hg 87%
21:00 +25°C° 0.1 mm 3 m/s 749 mm Hg 85%
22:00 +25°C° 0.1 mm 3 m/s 750 mm Hg 83%
23:00 +25°C° 0.1 mm 3 m/s 750 mm Hg 81%

11 Luglio, Sabato

Tempo Temperatura Precipitazioni Vento Pressione Umidità
00:00 +25°C° 0.1 mm 3 m/s 749 mm Hg 83%
01:00 +25°C° 0.1 mm 3 m/s 749 mm Hg 85%
02:00 +24°C° 0.1 mm 3 m/s 749 mm Hg 87%
03:00 +24°C° 0.1 mm 3 m/s 749 mm Hg 88%
04:00 +24°C° 0.1 mm 3 m/s 749 mm Hg 89%
05:00 +24°C° 0.1 mm 3 m/s 749 mm Hg 90%
06:00 +25°C° 0 mm 3 m/s 749 mm Hg 84%
07:00 +26°C° 0 mm 3 m/s 749 mm Hg 78%
08:00 +26°C° 0 mm 2 m/s 750 mm Hg 72%
09:00 +27°C° 0.1 mm 3 m/s 750 mm Hg 71%
10:00 +28°C° 0.1 mm 4 m/s 750 mm Hg 70%
11:00 +29°C° 0.1 mm 4 m/s 750 mm Hg 68%
12:00 +29°C° 0 mm 4 m/s 750 mm Hg 70%
13:00 +29°C° 0 mm 4 m/s 749 mm Hg 71%
14:00 +29°C° 0 mm 4 m/s 749 mm Hg 73%
15:00 +28°C° 0 mm 4 m/s 749 mm Hg 72%
16:00 +28°C° 0 mm 4 m/s 749 mm Hg 72%
17:00 +27°C° 0 mm 4 m/s 749 mm Hg 71%
18:00 +27°C° 0 mm 3 m/s 749 mm Hg 76%
19:00 +26°C° 0 mm 3 m/s 749 mm Hg 81%
20:00 +25°C° 0 mm 2 m/s 750 mm Hg 85%
21:00 +25°C° 0.2 mm 3 m/s 750 mm Hg 86%
22:00 +25°C° 0.2 mm 3 m/s 750 mm Hg 87%
23:00 +25°C° 0.2 mm 4 m/s 750 mm Hg 88%

12 Luglio, Domenica

Tempo Temperatura Precipitazioni Vento Pressione Umidità
00:00 +25°C° 0.2 mm 3 m/s 750 mm Hg 90%
01:00 +24°C° 0.2 mm 3 m/s 749 mm Hg 91%
02:00 +24°C° 0.2 mm 3 m/s 749 mm Hg 92%
03:00 +24°C° 0.2 mm 3 m/s 749 mm Hg 92%
04:00 +24°C° 0.2 mm 3 m/s 749 mm Hg 91%
05:00 +24°C° 0.2 mm 2 m/s 749 mm Hg 91%
06:00 +24°C° 0.1 mm 2 m/s 749 mm Hg 87%
07:00 +25°C° 0.1 mm 2 m/s 749 mm Hg 84%
08:00 +25°C° 0.1 mm 2 m/s 749 mm Hg 80%
09:00 +26°C° 0.1 mm 3 m/s 749 mm Hg 78%
10:00 +27°C° 0.1 mm 3 m/s 749 mm Hg 76%
11:00 +27°C° 0.1 mm 4 m/s 749 mm Hg 74%
12:00 +27°C° 0.2 mm 4 m/s 749 mm Hg 77%
13:00 +27°C° 0.2 mm 4 m/s 749 mm Hg 81%
14:00 +26°C° 0.2 mm 4 m/s 748 mm Hg 85%
15:00 +26°C° 0 mm 4 m/s 748 mm Hg 85%
16:00 +26°C° 0 mm 4 m/s 748 mm Hg 85%
17:00 +25°C° 0 mm 3 m/s 748 mm Hg 84%
18:00 +25°C° 0.1 mm 3 m/s 748 mm Hg 86%
19:00 +25°C° 0.1 mm 3 m/s 748 mm Hg 88%
20:00 +24°C° 0.1 mm 3 m/s 748 mm Hg 90%
21:00 +24°C° 0.2 mm 3 m/s 749 mm Hg 90%
22:00 +24°C° 0.2 mm 3 m/s 749 mm Hg 89%
23:00 +24°C° 0.2 mm 2 m/s 749 mm Hg 89%

13 Luglio, Lunedi

Tempo Temperatura Precipitazioni Vento Pressione Umidità
00:00 +24°C° 0.1 mm 2 m/s 748 mm Hg 90%
01:00 +23°C° 0.1 mm 2 m/s 748 mm Hg 92%
02:00 +23°C° 0.1 mm 2 m/s 747 mm Hg 93%
03:00 +23°C° 0 mm 2 m/s 747 mm Hg 91%
04:00 +23°C° 0 mm 2 m/s 747 mm Hg 90%
05:00 +23°C° 0 mm 2 m/s 747 mm Hg 88%
06:00 +24°C° 0 mm 2 m/s 747 mm Hg 78%
07:00 +25°C° 0 mm 2 m/s 748 mm Hg 69%
08:00 +26°C° 0 mm 3 m/s 748 mm Hg 59%
09:00 +26°C° 0.2 mm 3 m/s 748 mm Hg 67%
10:00 +26°C° 0.2 mm 3 m/s 748 mm Hg 76%
11:00 +26°C° 0.2 mm 3 m/s 748 mm Hg 84%
12:00 +26°C° 0.1 mm 3 m/s 748 mm Hg 82%
13:00 +27°C° 0.1 mm 3 m/s 747 mm Hg 80%
14:00 +28°C° 0.1 mm 3 m/s 747 mm Hg 78%
15:00 +27°C° 0.1 mm 3 m/s 747 mm Hg 80%
16:00 +27°C° 0.1 mm 3 m/s 747 mm Hg 83%
17:00 +26°C° 0.1 mm 3 m/s 747 mm Hg 85%
18:00 +26°C° 0 mm 3 m/s 747 mm Hg 86%
19:00 +25°C° 0 mm 3 m/s 747 mm Hg 88%
20:00 +24°C° 0 mm 2 m/s 748 mm Hg 89%
21:00 +24°C° 0 mm 2 m/s 748 mm Hg 87%
22:00 +24°C° 0 mm 2 m/s 748 mm Hg 84%
23:00 +24°C° 0 mm 2 m/s 748 mm Hg 82%
Mostrare altro